SCP
0 0 0 0 0 0 0 0 0 0 0 0 0 0 0 0 0 0 0 0 0 0 0 0 0 0 0 0 0 0 0 0 0 0 0 0 0 0 0 0 0 0 0
0 0 0 0 0 0 0 0 0 0 0 0 0 0 0 0 0 0 0 0 0 0 0 0 0 0 0 0 0 0 0 0 0 0 0 0 0 0 0 0 0 0 0
0 0 0 0 0 0 0 0 0 0 0 0 0 0 0 0 0 0 0 0 0 0 0 0 0 0 0 0 0 0 0 0 0 0 0 0 0 0 0 0 0 0 0
0 0 0 0 0 0 0 0 0 0 0 0 0 0 0 0 0 0 0 0 0 0 0 0 0 0 0 0 0 0 0 0 0 0 0 0 0 0 0 0 0 0 0
0 0 0 0 0 0 0 0 0 0 0 0 0 0 0 0 0 0 0 0 0 0 0 0 0 0 0 0 0 0 0 0 0 0 0 0 0 0 0 0 0 0 0
0 0 0 0 0 0 0 0 0 0 0 0 0 0 0 0 0 0 0 0 0 0 0 0 0 0 0 0 0 0 0 0 0 0 0 0 0 0 0 0 0 0 0
0 0 0 0 0 0 0 0 0 0 0 0 0 0 0 0 0 0 0 0 0 0 0 0 0 0 0 0 0 0 0 0 0 0 0 0 0 0 0 0 0 0 0
0 0 0 0 0 0 0 0 0 0 0 0 0 0 0 0 0 0 0 0 0 0 0 0 0 0 0 0 0 0 0 0 0 0 0 0 0 0 0 0 0 0 0
0 0 0 0 0 0 0 0 0 0 0 0 0 0 0 0 0 0 0 0 0 0 0 0 0 0 0 0 0 0 0 0 0 0 0 0 0 0 0 0 0 0 0
0 0 0 0 0 0 0 0 0 0 0 0 0 0 0 0 0 0 0 0 0 0 0 0 0 0 0 0 0 0 0 0 0 0 0 0 0 0 0 0 0 0 0
0 0 0 0 0 0 0 0 0 0 0 0 0 0 0 0 0 0 0 0 0 0 0 0 0 0 0 0 0 0 0 0 0 0 0 0 0 0 0 0 0 0 0
0 0 0 0 0 0 0 0 0 0 0 0 0 0 0 0 0 0 0 0 0 0 0 0 0 0 0 0 0 0 0 0 0 0 0 0 0 0 0 0 0 0 0
0 0 0 0 0 0 0 0 0 0 0 0 0 0 0 0 0 0 0 0 0 0 0 0 0 0 0 0 0 0 0 0 0 0 0 0 0 0 0 0 0 0 0
0 0 0 0 0 0 0 0 0 0 0 0 0 0 0 0 0 0 0 0 0 0 0 0 0 0 0 0 0 0 0 0 0 0 0 0 0 0 0 0 0 0 0
0 0 0 0 0 0 0 0 0 0 0 0 0 0 0 0 0 0 0 0 0 0 0 0 0 0 0 0 0 0 0 0 0 0 0 0 0 0 0 0 0 0 0
0 0 0 0 0 0 0 0 0 0 0 0 0 0 0 0 0 0 0 0 0 0 0 0 0 0 0 0 0 0 0 0 0 0 0 0 0 0 0 0 0 0 0
0 0 0 0 0 0 0 0 0 0 0 0 0 0 0 0 0 0 0 0 0 0 0 0 0 0 0 0 0 0 0 0 0 0 0 0 0 0 0 0 0 0 0
0 0 0 0 0 0 0 0 0 0 0 0 0 0 0 0 0 0 0 0 0 0 0 0 0 0 0 0 0 0 0 0 0 0 0 0 0 0 0 0 0 0 0
0 0 0 0 0 0 0 0 0 0 0 0 0 0 0 0 0 0 0 0 0 0 0 0 0 0 0 0 0 0 0 0 0 0 0 0 0 0 0 0 0 0 0
0 0 0 0 0 0 0 0 0 0 0 0 0 0 0 0 0 0 0 0 0 0 0 0 0 0 0 0 0 0 0 0 0 0 0 0 0 0 0 0 0 0 0
0 0 0 0 0 0 0 0 0 0 0 0 0 0 0 0 0 0 0 0 0 0 0 0 0 0 0 0 0 0 0 0 0 0 0 0 0 0 0 0 0 0 0
0 0 0 0 0 0 0 0 0 0 0 0 0 0 0 0 0 0 0 0 0 0 0 0 0 0 0 0 0 0 0 0 0 0 0 0 0 0 0 0 0 0 0
0 0 0 0 0 0 0 0 0 0 0 0 0 0 0 0 0 0 0 0 0 0 0 0 0 0 0 0 0 0 0 0 0 0 0 0 0 0 0 0 0 0 0
0 0 0 0 0 0 0 0 0 0 0 0 0 0 0 0 0 0 0 0 0 0 0 0 0 0 0 0 0 0 0 0 0 0 0 0 0 0 0 0 0 0 0
0 0 0 0 0 0 0 0 0 0 0 0 0 0 0 0 0 0 0 0 0 0 0 0 0 0 0 0 0 0 0 0 0 0 0 0 0 0 0 0 0 0 0
0 0 0 0 0 0 0 0 0 0 0 0 0 0 0 0 0 0 0 0 0 0 0 0 0 0 0 0 0 0 0 0 0 0 0 0 0 0 0 0 0 0 0
Wind_Speed
5 5 4 4 4 3 3 4 3 3 3 2 2 2 1 1 1 0 1 1 1 2 2 1 2 2 1 1 1 1 2 2 3 3 2 3 4 5 5 5 4 4 5
5 5 5 4 4 4 4 4 4 3 3 3 2 2 2 2 1 1 1 1 1 2 2 2 2 1 2 1 1 2 2 2 2 4 3 3 3 4 5 5 5 5 4
5 5 5 5 5 5 5 4 4 3 3 3 2 3 2 2 2 2 2 2 2 2 2 2 2 1 2 2 2 2 2 2 1 2 3 2 2 3 4 5 5 4 5
5 5 6 6 6 6 5 4 4 4 4 3 3 3 3 3 3 2 2 2 2 2 2 2 2 2 2 2 2 2 2 2 2 2 3 3 3 3 3 4 5 4 5
5 6 7 6 5 5 5 5 4 4 5 4 4 3 3 3 3 3 3 2 2 2 2 2 2 2 2 2 2 1 1 2 2 2 3 3 3 3 4 4 5 5 4
5 7 6 5 5 5 5 5 4 4 4 4 4 4 4 3 5 6 4 3 2 2 2 2 2 2 3 4 4 3 3 2 2 2 2 3 4 3 4 4 5 5 5
5 6 5 5 5 5 5 5 5 5 4 4 4 4 4 5 7 7 6 3 3 3 3 2 2 2 2 1 2 4 4 5 4 2 2 3 3 4 4 5 4 5 5
5 5 5 5 5 5 4 5 5 4 4 4 4 5 4 6 8 8 7 3 2 3 3 3 3 2 2 2 1 1 2 2 3 2 1 2 3 3 3 3 4 5 5
5 5 5 5 5 5 5 6 5 4 4 4 4 5 5 6 8 8 6 2 2 2 3 3 3 3 4 4 1 1 2 2 3 3 4 4 6 7 5 3 3 4 5
6 5 5 5 5 6 6 5 4 4 5 4 4 4 5 5 8 9 7 3 3 2 2 2 4 4 5 4 1 1 2 2 2 2 3 4 4 5 6 3 2 3 4
5 4 4 4 5 5 5 4 3 4 3 4 4 4 4 6 7 9 9 4 4 3 3 2 3 5 5 5 3 2 4 2 1 1 2 2 2 2 2 2 2 2 3
4 4 4 4 4 3 4 3 3 4 4 4 3 3 3 4 6 8 10 8 7 4 4 3 3 6 6 5 3 3 4 2 0 1 1 2 2 3 3 3 4 4 4
3 4 4 3 3 3 4 4 3 3 4 4 3 4 3 3 4 9 10 10 9 5 4 5 6 6 5 3 4 4 2 0 0 1 2 2 2 3 3 4 4 5 5
4 4 3 3 3 3 3 3 3 4 4 4 4 4 4 3 3 3 3 4 6 5 3 4 5 5 3 2 2 2 1 1 1 2 2 2 2 3 3 3 4 5 5
4 4 3 3 3 3 3 4 5 5 6 6 5 5 4 5 6 8 5 4 4 4 3 2 1 1 2 2 1 1 1 1 1 1 2 2 3 3 3 3 3 4 4
4 4 3 3 3 3 3 3 6 7 9 11 9 7 6 8 8 10 10 10 10 9 5 3 3 3 3 3 3 2 2 2 2 2 2 2 3 3 4 4 4 4 5
5 4 3 3 3 3 3 4 3 4 7 9 10 10 9 8 9 10 10 10 10 9 5 4 4 4 4 3 3 3 3 2 2 2 2 2 3 3 4 4 4 5 5
5 6 5 4 4 4 4 4 4 4 4 3 6 10 10 9 9 9 9 7 5 5 4 4 4 4 3 3 3 3 3 2 2 2 3 3 3 3 4 4 4 5 6
5 4 4 4 4 4 4 4 4 4 4 3 2 4 8 8 9 9 8 4 4 4 4 4 4 4 3 3 3 3 3 3 3 3 3 3 3 3 4 4 5 8 7
4 7 5 4 4 4 4 4 4 4 4 4 4 4 3 3 3 4 4 4 4 4 4 4 4 4 4 4 3 3 3 3 3 3 3 3 3 3 4 6 5 6 6
4 5 7 4 4 4 4 5 5 5 5 5 5 6 8 5 5 5 4 5 5 5 5 4 4 4 4 4 3 4 4 4 3 3 3 4 4 4 4 5 5 6 6
4 4 4 4 4 4 4 5 5 5 5 6 4 5 11 6 4 4 5 5 4 4 4 4 4 4 4 4 4 4 4 4 4 4 4 4 4 4 4 5 5 6 6
4 4 4 4 4 6 6 5 5 5 5 5 5 4 5 5 5 5 5 4 3 3 3 3 4 4 3 4 4 4 5 5 4 4 4 4 4 4 4 5 6 7 7
4 5 5 4 4 4 5 5 5 5 5 5 5 5 5 5 5 5 4 3 3 3 3 3 4 5 5 4 3 3 4 4 4 4 5 5 5 4 4 5 6 7 7
4 5 5 5 5 5 5 5 5 5 5 5 5 5 4 4 4 4 4 4 4 4 4 4 3 4 5 6 5 4 6 9 7 4 4 4 5 5 5 6 6 6 7
5 5 5 5 5 5 5 5 5 5 5 5 4 4 4 4 4 4 4 4 4 4 4 4 4 5 5 5 6 7 8 9 8 8 4 3 4 4 5 5 6 6 7
Wind_Direction
224 225 229 232 231 227 228 233 234 235 229 231 235 242 255 265 272 286 299 322 319 317 318 318 317 321 314 326 324 313 306 288 275 293 304 319 331 336 333 333 334 337 339
223 222 227 232 231 231 235 234 227 227 226 224 221 224 238 245 244 231 250 267 262 279 292 303 305 313 310 310 307 302 296 286 269 286 305 316 319 325 327 331 339 343 335
218 221 228 230 228 231 234 232 225 222 222 220 214 220 230 231 231 235 231 246 252 258 262 267 277 286 290 294 296 293 295 306 284 283 299 307 310 324 330 329 332 331 331
219 222 230 231 227 228 228 225 221 216 217 220 221 223 226 227 225 225 222 237 254 266 266 265 265 256 256 267 279 282 291 301 302 297 297 305 310 321 332 328 324 331 325
222 227 235 236 227 223 224 223 220 217 218 215 217 226 228 225 223 213 213 220 227 255 274 280 280 280 277 281 290 289 295 293 301 300 301 309 318 334 332 320 316 319 309
227 234 237 232 224 223 223 220 219 221 220 213 216 221 227 233 235 228 211 205 212 226 252 274 286 298 307 323 333 342 337 309 294 288 299 305 309 313 308 316 318 323 314
236 240 237 228 227 228 223 216 218 219 215 217 219 218 228 237 238 238 229 200 204 220 231 246 269 285 305 303 341 350 350 342 334 306 292 294 298 305 308 311 311 306 293
243 245 239 228 230 230 223 225 224 215 212 216 220 219 226 237 236 236 231 208 207 222 230 229 233 250 262 262 257 315 322 328 328 334 271 280 289 293 288 297 300 302 290
248 247 238 226 227 226 226 230 226 215 217 215 214 213 220 237 234 230 222 189 207 230 241 239 228 231 256 271 239 268 299 306 326 337 331 332 335 340 344 343 329 323 312
250 249 243 228 225 228 229 229 223 214 219 215 221 216 216 228 232 230 220 191 209 228 239 246 243 234 247 265 230 230 269 281 305 327 342 350 352 348 354 358 320 310 309
257 254 248 235 230 231 230 224 220 216 215 216 223 226 220 224 233 233 227 200 204 212 222 228 240 250 254 263 260 237 257 271 264 302 316 323 329 329 333 331 315 289 283
258 252 248 243 236 227 220 224 215 206 214 223 226 235 228 228 227 235 234 227 212 205 218 217 228 245 254 261 266 270 284 304 310 301 308 309 315 318 316 312 304 289 271
257 253 252 247 235 224 214 217 216 209 215 223 222 233 235 222 229 232 234 235 229 212 210 221 231 241 249 259 270 280 289 280 267 285 293 297 300 299 304 307 305 297 288
253 256 252 243 242 230 220 213 212 214 218 222 223 230 231 221 219 219 222 230 231 227 215 228 241 248 238 239 261 280 260 230 246 264 285 295 304 306 311 316 314 317 310
250 249 247 237 232 233 229 223 220 222 215 219 223 218 216 228 226 216 205 204 196 201 182 178 193 204 214 219 229 234 236 261 269 270 280 294 303 309 312 317 311 313 304
251 249 241 236 232 229 236 257 240 234 240 237 231 224 229 232 233 227 223 222 217 213 200 194 209 214 222 225 227 229 228 239 245 253 267 279 293 300 304 308 304 301 300
242 246 239 231 228 227 225 230 254 253 239 237 234 233 233 234 233 228 225 223 222 215 211 206 213 216 220 221 221 222 229 236 242 251 262 272 280 285 291 297 300 300 298
245 242 235 230 227 226 224 224 228 237 246 246 234 234 236 236 235 230 224 215 218 214 206 210 214 215 215 217 219 224 231 237 241 251 258 262 266 274 282 285 290 292 295
248 245 236 232 229 227 223 220 224 230 236 240 239 238 232 231 231 226 214 205 207 214 212 212 211 209 210 212 217 222 227 235 240 245 254 258 261 268 276 280 284 292 296
248 247 242 235 231 227 222 223 224 224 226 227 228 226 208 204 213 214 208 201 211 217 213 213 211 207 207 208 213 219 228 234 237 243 252 256 257 260 270 277 282 287 288
246 248 241 237 232 228 226 226 226 224 226 227 228 222 213 210 214 213 212 211 214 216 212 210 209 206 207 205 209 218 226 234 237 240 247 253 257 264 269 273 279 283 288
237 238 233 232 233 233 233 227 224 226 229 230 232 229 227 218 213 215 215 217 215 212 205 202 206 205 203 204 207 214 224 231 236 237 244 252 257 264 270 275 280 286 288
233 238 239 235 232 241 242 230 227 228 229 226 224 220 217 213 212 213 215 214 207 204 200 198 203 207 206 206 205 207 217 228 232 232 238 249 257 263 269 275 281 287 290
233 237 239 239 234 233 235 235 231 230 228 225 222 220 218 215 211 211 208 201 199 201 198 199 204 209 210 213 215 216 220 229 232 232 231 242 254 263 270 275 280 284 289
234 238 239 237 235 235 236 236 234 231 229 225 221 220 217 211 209 207 201 195 196 201 203 202 203 207 213 218 223 228 238 244 246 242 231 237 248 257 266 274 280 287 289
238 240 242 238 235 233 234 237 236 231 229 225 219 214 210 207 206 202 197 194 197 201 204 206 208 209 213 220 228 237 244 249 252 253 249 241 247 260 267 274 281 286 289